owner,sensor,date,latitude,longitude,air_pressure(mBar),qcFlag 
WAVCIS,ioos:station:WAVCIS:CSI06:1,2008-08-01T00:00:00Z,28.8667,-90.4833,1011.08,11111222 
WAVCIS,ioos:station:WAVCIS:CSI06:1,2008-08-01T01:00:00Z,28.8667,-90.4833,1011.02,11111222 
WAVCIS,ioos:station:WAVCIS:CSI06:1,2008-08-01T02:00:00Z,28.8667,-90.4833,1011.04,11111222 
WAVCIS,ioos:station:WAVCIS:CSI06:1,2008-08-01T03:00:00Z,28.8667,-90.4833,1011.5,11111222 
WAVCIS,ioos:station:WAVCIS:CSI06:1,2008-08-01T04:00:00Z,28.8667,-90.4833,1011.81,11111222 
WAVCIS,ioos:station:WAVCIS:CSI06:1,2008-08-01T05:00:00Z,28.8667,-90.4833,1011.78,11111222 
WAVCIS,ioos:station:WAVCIS:CSI06:1,2008-08-01T06:00:00Z,28.8667,-90.4833,1011.74,11111222 
WAVCIS,ioos:station:WAVCIS:CSI06:1,2008-08-01T07:00:00Z,28.8667,-90.4833,1011.9,11111222 
WAVCIS,ioos:station:WAVCIS:CSI06:1,2008-08-01T08:00:00Z,28.8667,-90.4833,1011.65,11111222 
WAVCIS,ioos:station:WAVCIS:CSI06:1,2008-08-01T09:00:00Z,28.8667,-90.4833,1011.61,11111222 
WAVCIS,ioos:station:WAVCIS:CSI06:1,2008-08-01T10:00:00Z,28.8667,-90.4833,1011.86,11111222 
WAVCIS,ioos:station:WAVCIS:CSI06:1,2008-08-01T11:00:00Z,28.8667,-90.4833,1012.2,11111222 
WAVCIS,ioos:station:WAVCIS:CSI06:1,2008-08-01T12:00:00Z,28.8667,-90.4833,1012.52,11111222 
WAVCIS,ioos:station:WAVCIS:CSI06:1,2008-08-01T13:00:00Z,28.8667,-90.4833,1013.23,11111222 
WAVCIS,ioos:station:WAVCIS:CSI06:1,2008-08-01T14:00:00Z,28.8667,-90.4833,1013.41,11111222 
WAVCIS,ioos:station:WAVCIS:CSI06:1,2008-08-01T15:00:00Z,28.8667,-90.4833,1014.04,11111222 
WAVCIS,ioos:station:WAVCIS:CSI06:1,2008-08-01T16:00:00Z,28.8667,-90.4833,1014.39,11111222 
WAVCIS,ioos:station:WAVCIS:CSI06:1,2008-08-01T17:00:00Z,28.8667,-90.4833,1014.73,11111222 
WAVCIS,ioos:station:WAVCIS:CSI06:1,2008-08-01T18:00:00Z,28.8667,-90.4833,1014.38,11111222 
WAVCIS,ioos:station:WAVCIS:CSI06:1,2008-08-01T19:00:00Z,28.8667,-90.4833,1013.96,11111222 
WAVCIS,ioos:station:WAVCIS:CSI06:1,2008-08-01T20:00:00Z,28.8667,-90.4833,1013.67,11111222 
WAVCIS,ioos:station:WAVCIS:CSI06:1,2008-08-01T21:00:00Z,28.8667,-90.4833,1013.87,11111222 
WAVCIS,ioos:station:WAVCIS:CSI06:1,2008-08-01T22:00:00Z,28.8667,-90.4833,1014.22,11111222 
WAVCIS,ioos:station:WAVCIS:CSI06:1,2008-08-01T23:00:00Z,28.8667,-90.4833,1013.32,11111222 
WAVCIS,ioos:station:WAVCIS:CSI06:1,2008-08-02T00:00:00Z,28.8667,-90.4833,1013.14,11111222 
WAVCIS,ioos:station:WAVCIS:CSI06:1,2008-08-02T01:00:00Z,28.8667,-90.4833,1013.27,11111222 
WAVCIS,ioos:station:WAVCIS:CSI06:1,2008-08-02T02:00:00Z,28.8667,-90.4833,1013.11,11111222 
WAVCIS,ioos:station:WAVCIS:CSI06:1,2008-08-02T03:00:00Z,28.8667,-90.4833,1013.41,11111222 
WAVCIS,ioos:station:WAVCIS:CSI06:1,2008-08-02T04:00:00Z,28.8667,-90.4833,1013.24,11111222 
WAVCIS,ioos:station:WAVCIS:CSI06:1,2008-08-02T05:00:00Z,28.8667,-90.4833,1012.91,11111222 
WAVCIS,ioos:station:WAVCIS:CSI06:1,2008-08-02T06:00:00Z,28.8667,-90.4833,1012.71,11111222 
WAVCIS,ioos:station:WAVCIS:CSI06:1,2008-08-02T07:00:00Z,28.8667,-90.4833,1012.67,11111222 
WAVCIS,ioos:station:WAVCIS:CSI06:1,2008-08-02T08:00:00Z,28.8667,-90.4833,1012.48,11111222 
WAVCIS,ioos:station:WAVCIS:CSI06:1,2008-08-02T09:00:00Z,28.8667,-90.4833,1012.45,11111222 
WAVCIS,ioos:station:WAVCIS:CSI06:1,2008-08-02T10:00:00Z,28.8667,-90.4833,1012.42,11111222 
WAVCIS,ioos:station:WAVCIS:CSI06:1,2008-08-02T11:00:00Z,28.8667,-90.4833,1012.8,11111222 
WAVCIS,ioos:station:WAVCIS:CSI06:1,2008-08-02T12:00:00Z,28.8667,-90.4833,1013.39,11111222 
WAVCIS,ioos:station:WAVCIS:CSI06:1,2008-08-02T13:00:00Z,28.8667,-90.4833,1013.76,11111222 
WAVCIS,ioos:station:WAVCIS:CSI06:1,2008-08-02T14:00:00Z,28.8667,-90.4833,1013.89,11111222 
WAVCIS,ioos:station:WAVCIS:CSI06:1,2008-08-02T15:00:00Z,28.8667,-90.4833,1014.27,11111222 
WAVCIS,ioos:station:WAVCIS:CSI06:1,2008-08-02T16:00:00Z,28.8667,-90.4833,1014.53,11111222 
WAVCIS,ioos:station:WAVCIS:CSI06:1,2008-08-02T17:00:00Z,28.8667,-90.4833,1014.44,11111222 
WAVCIS,ioos:station:WAVCIS:CSI06:1,2008-08-02T18:00:00Z,28.8667,-90.4833,1014.28,11111222 
WAVCIS,ioos:station:WAVCIS:CSI06:1,2008-08-02T19:00:00Z,28.8667,-90.4833,1013.3,11111222 
WAVCIS,ioos:station:WAVCIS:CSI06:1,2008-08-02T20:00:00Z,28.8667,-90.4833,1012.97,11111222 
WAVCIS,ioos:station:WAVCIS:CSI06:1,2008-08-02T21:00:00Z,28.8667,-90.4833,1012.82,11111222 
WAVCIS,ioos:station:WAVCIS:CSI06:1,2008-08-02T22:00:00Z,28.8667,-90.4833,1012.38,11111222 
WAVCIS,ioos:station:WAVCIS:CSI06:1,2008-08-02T23:00:00Z,28.8667,-90.4833,1011.81,11111222 
WAVCIS,ioos:station:WAVCIS:CSI06:1,2008-08-03T00:00:00Z,28.8667,-90.4833,1011.56,11111222 
WAVCIS,ioos:station:WAVCIS:CSI06:1,2008-08-03T01:00:00Z,28.8667,-90.4833,1011.69,11111222 
WAVCIS,ioos:station:WAVCIS:CSI06:1,2008-08-03T02:00:00Z,28.8667,-90.4833,1011.68,11111222 
WAVCIS,ioos:station:WAVCIS:CSI06:1,2008-08-03T03:00:00Z,28.8667,-90.4833,1011.93,11111222 
WAVCIS,ioos:station:WAVCIS:CSI06:1,2008-08-03T04:00:00Z,28.8667,-90.4833,1012.02,11111222 
WAVCIS,ioos:station:WAVCIS:CSI06:1,2008-08-03T05:00:00Z,28.8667,-90.4833,1012.12,11111222 
WAVCIS,ioos:station:WAVCIS:CSI06:1,2008-08-03T06:00:00Z,28.8667,-90.4833,1011.38,11111222 
WAVCIS,ioos:station:WAVCIS:CSI06:1,2008-08-03T07:00:00Z,28.8667,-90.4833,1011.37,11111222 
WAVCIS,ioos:station:WAVCIS:CSI06:1,2008-08-03T08:00:00Z,28.8667,-90.4833,1011.2,11111222 
WAVCIS,ioos:station:WAVCIS:CSI06:1,2008-08-03T09:00:00Z,28.8667,-90.4833,1011.4,11111222 
WAVCIS,ioos:station:WAVCIS:CSI06:1,2008-08-03T10:00:00Z,28.8667,-90.4833,1010.74,11111222 
WAVCIS,ioos:station:WAVCIS:CSI06:1,2008-08-03T11:00:00Z,28.8667,-90.4833,1010.93,11111222 
WAVCIS,ioos:station:WAVCIS:CSI06:1,2008-08-03T12:00:00Z,28.8667,-90.4833,1010.9,11111222 
WAVCIS,ioos:station:WAVCIS:CSI06:1,2008-08-03T13:00:00Z,28.8667,-90.4833,1011.25,11111222 
WAVCIS,ioos:station:WAVCIS:CSI06:1,2008-08-03T14:00:00Z,28.8667,-90.4833,1011.78,11111222 
WAVCIS,ioos:station:WAVCIS:CSI06:1,2008-08-03T15:00:00Z,28.8667,-90.4833,1011.84,11111222 
WAVCIS,ioos:station:WAVCIS:CSI06:1,2008-08-03T16:00:00Z,28.8667,-90.4833,1011.66,11111222 
WAVCIS,ioos:station:WAVCIS:CSI06:1,2008-08-03T17:00:00Z,28.8667,-90.4833,1011.77,11111222 
WAVCIS,ioos:station:WAVCIS:CSI06:1,2008-08-03T18:00:00Z,28.8667,-90.4833,1011.6,11111222 
WAVCIS,ioos:station:WAVCIS:CSI06:1,2008-08-03T19:00:00Z,28.8667,-90.4833,1011.24,11111222 
WAVCIS,ioos:station:WAVCIS:CSI06:1,2008-08-03T20:00:00Z,28.8667,-90.4833,1011.02,11111222 
WAVCIS,ioos:station:WAVCIS:CSI06:1,2008-08-03T21:00:00Z,28.8667,-90.4833,1010.4,11111222 
WAVCIS,ioos:station:WAVCIS:CSI06:1,2008-08-03T22:00:00Z,28.8667,-90.4833,1009.55,11111222 
WAVCIS,ioos:station:WAVCIS:CSI06:1,2008-08-03T23:00:00Z,28.8667,-90.4833,1008.98,11111222 
WAVCIS,ioos:station:WAVCIS:CSI06:1,2008-08-04T00:00:00Z,28.8667,-90.4833,1009.28,11111222 
WAVCIS,ioos:station:WAVCIS:CSI06:1,2008-08-04T01:00:00Z,28.8667,-90.4833,1009.5,11111222 
WAVCIS,ioos:station:WAVCIS:CSI06:1,2008-08-04T02:00:00Z,28.8667,-90.4833,1009.66,11111222 
WAVCIS,ioos:station:WAVCIS:CSI06:1,2008-08-04T03:00:00Z,28.8667,-90.4833,1009.86,11111222 
WAVCIS,ioos:station:WAVCIS:CSI06:1,2008-08-04T04:00:00Z,28.8667,-90.4833,1010.4,11111222 
WAVCIS,ioos:station:WAVCIS:CSI06:1,2008-08-04T05:00:00Z,28.8667,-90.4833,1010.01,11111222 
WAVCIS,ioos:station:WAVCIS:CSI06:1,2008-08-04T06:00:00Z,28.8667,-90.4833,1009.61,11111222 
WAVCIS,ioos:station:WAVCIS:CSI06:1,2008-08-04T07:00:00Z,28.8667,-90.4833,1008.66,11111222 
WAVCIS,ioos:station:WAVCIS:CSI06:1,2008-08-04T08:00:00Z,28.8667,-90.4833,1008.19,11111222 
WAVCIS,ioos:station:WAVCIS:CSI06:1,2008-08-04T09:00:00Z,28.8667,-90.4833,1008.02,11111222 
WAVCIS,ioos:station:WAVCIS:CSI06:1,2008-08-04T10:00:00Z,28.8667,-90.4833,1007.74,11111222 
WAVCIS,ioos:station:WAVCIS:CSI06:1,2008-08-04T11:00:00Z,28.8667,-90.4833,1008.03,11111222 
WAVCIS,ioos:station:WAVCIS:CSI06:1,2008-08-04T12:00:00Z,28.8667,-90.4833,1008.27,11111222 
WAVCIS,ioos:station:WAVCIS:CSI06:1,2008-08-04T13:00:00Z,28.8667,-90.4833,1008.29,11111222 
WAVCIS,ioos:station:WAVCIS:CSI06:1,2008-08-04T14:00:00Z,28.8667,-90.4833,1008.14,11111222 
WAVCIS,ioos:station:WAVCIS:CSI06:1,2008-08-04T15:00:00Z,28.8667,-90.4833,1008.13,11111222 
WAVCIS,ioos:station:WAVCIS:CSI06:1,2008-08-04T16:00:00Z,28.8667,-90.4833,1007.61,11111222 
WAVCIS,ioos:station:WAVCIS:CSI06:1,2008-08-04T17:00:00Z,28.8667,-90.4833,1007.79,11111222 
WAVCIS,ioos:station:WAVCIS:CSI06:1,2008-08-04T18:00:00Z,28.8667,-90.4833,1008.75,11111222 
WAVCIS,ioos:station:WAVCIS:CSI06:1,2008-08-04T19:00:00Z,28.8667,-90.4833,1008.94,11111222 
WAVCIS,ioos:station:WAVCIS:CSI06:1,2008-08-04T20:00:00Z,28.8667,-90.4833,1009.13,11111222 
WAVCIS,ioos:station:WAVCIS:CSI06:1,2008-08-04T21:00:00Z,28.8667,-90.4833,1009.36,11111222 
WAVCIS,ioos:station:WAVCIS:CSI06:1,2008-08-07T15:00:00Z,28.8667,-90.4833,1016.78,11111222 
WAVCIS,ioos:station:WAVCIS:CSI06:1,2008-08-07T16:00:00Z,28.8667,-90.4833,1016.53,11111222 
WAVCIS,ioos:station:WAVCIS:CSI06:1,2008-08-07T17:00:00Z,28.8667,-90.4833,1015.97,11111222 
WAVCIS,ioos:station:WAVCIS:CSI06:1,2008-08-07T18:00:00Z,28.8667,-90.4833,1015.85,11111222 
WAVCIS,ioos:station:WAVCIS:CSI06:1,2008-08-07T19:00:00Z,28.8667,-90.4833,1015.25,11111222 
WAVCIS,ioos:station:WAVCIS:CSI06:1,2008-08-07T20:00:00Z,28.8667,-90.4833,1014.36,11111222 
WAVCIS,ioos:station:WAVCIS:CSI06:1,2008-08-07T21:00:00Z,28.8667,-90.4833,1013.37,11111222 
WAVCIS,ioos:station:WAVCIS:CSI06:1,2008-08-07T22:00:00Z,28.8667,-90.4833,1013.03,11111222 
WAVCIS,ioos:station:WAVCIS:CSI06:1,2008-08-07T23:00:00Z,28.8667,-90.4833,1012.47,11111222 
WAVCIS,ioos:station:WAVCIS:CSI06:1,2008-08-08T00:00:00Z,28.8667,-90.4833,1012.91,11111222 
WAVCIS,ioos:station:WAVCIS:CSI06:1,2008-08-08T01:00:00Z,28.8667,-90.4833,1012.77,11111222 
WAVCIS,ioos:station:WAVCIS:CSI06:1,2008-08-08T02:00:00Z,28.8667,-90.4833,1012.61,11111222 
WAVCIS,ioos:station:WAVCIS:CSI06:1,2008-08-08T03:00:00Z,28.8667,-90.4833,1013.03,11111222 
WAVCIS,ioos:station:WAVCIS:CSI06:1,2008-08-08T04:00:00Z,28.8667,-90.4833,1013.15,11111222 
WAVCIS,ioos:station:WAVCIS:CSI06:1,2008-08-08T05:00:00Z,28.8667,-90.4833,1012.46,11111222 
WAVCIS,ioos:station:WAVCIS:CSI06:1,2008-08-08T06:00:00Z,28.8667,-90.4833,1012.61,11111222 
WAVCIS,ioos:station:WAVCIS:CSI06:1,2008-08-08T07:00:00Z,28.8667,-90.4833,1012.33,11111222 
WAVCIS,ioos:station:WAVCIS:CSI06:1,2008-08-08T08:00:00Z,28.8667,-90.4833,1012.06,11111222 
WAVCIS,ioos:station:WAVCIS:CSI06:1,2008-08-08T09:00:00Z,28.8667,-90.4833,1011.68,11111222 
WAVCIS,ioos:station:WAVCIS:CSI06:1,2008-08-08T10:00:00Z,28.8667,-90.4833,1012.07,11111222 
WAVCIS,ioos:station:WAVCIS:CSI06:1,2008-08-08T11:00:00Z,28.8667,-90.4833,1013.54,11111222 
WAVCIS,ioos:station:WAVCIS:CSI06:1,2008-08-08T12:00:00Z,28.8667,-90.4833,1013.29,11111222 
WAVCIS,ioos:station:WAVCIS:CSI06:1,2008-08-08T13:00:00Z,28.8667,-90.4833,1014.7,11111222 
WAVCIS,ioos:station:WAVCIS:CSI06:1,2008-08-08T20:00:00Z,28.8667,-90.4833,1012.81,11111222 
WAVCIS,ioos:station:WAVCIS:CSI06:1,2008-08-11T16:00:00Z,28.8667,-90.4833,1012.83,11111222 
WAVCIS,ioos:station:WAVCIS:CSI06:1,2008-08-11T17:00:00Z,28.8667,-90.4833,1012.59,11111222 
WAVCIS,ioos:station:WAVCIS:CSI06:1,2008-08-11T18:00:00Z,28.8667,-90.4833,1012.3,11111222 
WAVCIS,ioos:station:WAVCIS:CSI06:1,2008-08-11T19:00:00Z,28.8667,-90.4833,1011.83,11111222 
WAVCIS,ioos:station:WAVCIS:CSI06:1,2008-08-11T20:00:00Z,28.8667,-90.4833,1011.25,11111222 
WAVCIS,ioos:station:WAVCIS:CSI06:1,2008-08-11T21:00:00Z,28.8667,-90.4833,1011.11,11111222 
WAVCIS,ioos:station:WAVCIS:CSI06:1,2008-08-11T22:00:00Z,28.8667,-90.4833,1010.87,11111222 
WAVCIS,ioos:station:WAVCIS:CSI06:1,2008-08-11T23:00:00Z,28.8667,-90.4833,1010.68,11111222 
WAVCIS,ioos:station:WAVCIS:CSI06:1,2008-08-12T00:00:00Z,28.8667,-90.4833,1010.65,11111222 
WAVCIS,ioos:station:WAVCIS:CSI06:1,2008-08-12T01:00:00Z,28.8667,-90.4833,1010.71,11111222 
WAVCIS,ioos:station:WAVCIS:CSI06:1,2008-08-12T02:00:00Z,28.8667,-90.4833,1010.85,11111222 
WAVCIS,ioos:station:WAVCIS:CSI06:1,2008-08-12T03:00:00Z,28.8667,-90.4833,1011.13,11111222 
WAVCIS,ioos:station:WAVCIS:CSI06:1,2008-08-12T04:00:00Z,28.8667,-90.4833,1011.0,11111222 
WAVCIS,ioos:station:WAVCIS:CSI06:1,2008-08-12T05:00:00Z,28.8667,-90.4833,1010.82,11111222 
WAVCIS,ioos:station:WAVCIS:CSI06:1,2008-08-12T06:00:00Z,28.8667,-90.4833,1010.62,11111222 
WAVCIS,ioos:station:WAVCIS:CSI06:1,2008-08-12T07:00:00Z,28.8667,-90.4833,1010.23,11111222 
WAVCIS,ioos:station:WAVCIS:CSI06:1,2008-08-12T09:00:00Z,28.8667,-90.4833,1009.78,11111222 
WAVCIS,ioos:station:WAVCIS:CSI06:1,2008-08-12T10:00:00Z,28.8667,-90.4833,1009.77,11111222 
WAVCIS,ioos:station:WAVCIS:CSI06:1,2008-08-12T11:00:00Z,28.8667,-90.4833,1009.84,11111222 
WAVCIS,ioos:station:WAVCIS:CSI06:1,2008-08-12T12:00:00Z,28.8667,-90.4833,1010.43,11111222 
WAVCIS,ioos:station:WAVCIS:CSI06:1,2008-08-12T13:00:00Z,28.8667,-90.4833,1010.91,11111222 
WAVCIS,ioos:station:WAVCIS:CSI06:1,2008-08-12T14:00:00Z,28.8667,-90.4833,1010.86,11111222 
WAVCIS,ioos:station:WAVCIS:CSI06:1,2008-08-12T15:00:00Z,28.8667,-90.4833,1010.62,11111222 
WAVCIS,ioos:station:WAVCIS:CSI06:1,2008-08-12T16:00:00Z,28.8667,-90.4833,1010.61,11111222 
WAVCIS,ioos:station:WAVCIS:CSI06:1,2008-08-12T17:00:00Z,28.8667,-90.4833,1010.31,11111222 
WAVCIS,ioos:station:WAVCIS:CSI06:1,2008-08-12T18:00:00Z,28.8667,-90.4833,1010.0,11111222 
WAVCIS,ioos:station:WAVCIS:CSI06:1,2008-08-12T19:00:00Z,28.8667,-90.4833,1009.32,11111222 
WAVCIS,ioos:station:WAVCIS:CSI06:1,2008-08-12T20:00:00Z,28.8667,-90.4833,1008.6,11111222 
WAVCIS,ioos:station:WAVCIS:CSI06:1,2008-08-12T21:00:00Z,28.8667,-90.4833,1007.88,11111222 
WAVCIS,ioos:station:WAVCIS:CSI06:1,2008-08-12T22:00:00Z,28.8667,-90.4833,1007.69,11111222 
WAVCIS,ioos:station:WAVCIS:CSI06:1,2008-08-12T23:00:00Z,28.8667,-90.4833,1007.48,11111222 
WAVCIS,ioos:station:WAVCIS:CSI06:1,2008-08-13T00:00:00Z,28.8667,-90.4833,1007.29,11111222 
WAVCIS,ioos:station:WAVCIS:CSI06:1,2008-08-13T01:00:00Z,28.8667,-90.4833,1007.23,11111222 
WAVCIS,ioos:station:WAVCIS:CSI06:1,2008-08-13T02:00:00Z,28.8667,-90.4833,1007.24,11111222 
WAVCIS,ioos:station:WAVCIS:CSI06:1,2008-08-13T03:00:00Z,28.8667,-90.4833,1007.88,11111222 
WAVCIS,ioos:station:WAVCIS:CSI06:1,2008-08-13T04:00:00Z,28.8667,-90.4833,1008.09,11111222 
WAVCIS,ioos:station:WAVCIS:CSI06:1,2008-08-13T05:00:00Z,28.8667,-90.4833,1008.11,11111222 
WAVCIS,ioos:station:WAVCIS:CSI06:1,2008-08-13T06:00:00Z,28.8667,-90.4833,1007.73,11111222 
WAVCIS,ioos:station:WAVCIS:CSI06:1,2008-08-13T07:00:00Z,28.8667,-90.4833,1007.016,11111222 
WAVCIS,ioos:station:WAVCIS:CSI06:1,2008-08-13T08:00:00Z,28.8667,-90.4833,1006.948,11111222 
WAVCIS,ioos:station:WAVCIS:CSI06:1,2008-08-13T09:00:00Z,28.8667,-90.4833,1007.35,11111222 
WAVCIS,ioos:station:WAVCIS:CSI06:1,2008-08-13T10:00:00Z,28.8667,-90.4833,1007.81,11111222 
WAVCIS,ioos:station:WAVCIS:CSI06:1,2008-08-13T11:00:00Z,28.8667,-90.4833,1007.93,11111222 
WAVCIS,ioos:station:WAVCIS:CSI06:1,2008-08-13T12:00:00Z,28.8667,-90.4833,1008.04,11111222 
WAVCIS,ioos:station:WAVCIS:CSI06:1,2008-08-13T13:00:00Z,28.8667,-90.4833,1009.33,11111222 
WAVCIS,ioos:station:WAVCIS:CSI06:1,2008-08-13T14:00:00Z,28.8667,-90.4833,1009.32,11111222 
WAVCIS,ioos:station:WAVCIS:CSI06:1,2008-08-13T15:00:00Z,28.8667,-90.4833,1009.75,11111222 
WAVCIS,ioos:station:WAVCIS:CSI06:1,2008-08-13T16:00:00Z,28.8667,-90.4833,1010.94,11111222 
WAVCIS,ioos:station:WAVCIS:CSI06:1,2008-08-13T17:00:00Z,28.8667,-90.4833,1011.24,11111222 
WAVCIS,ioos:station:WAVCIS:CSI06:1,2008-08-13T18:00:00Z,28.8667,-90.4833,1010.45,11111222 
WAVCIS,ioos:station:WAVCIS:CSI06:1,2008-08-13T19:00:00Z,28.8667,-90.4833,1009.52,11111222 
WAVCIS,ioos:station:WAVCIS:CSI06:1,2008-08-13T20:00:00Z,28.8667,-90.4833,1009.35,11111222 
WAVCIS,ioos:station:WAVCIS:CSI06:1,2008-08-13T21:00:00Z,28.8667,-90.4833,1008.95,11111222 
WAVCIS,ioos:station:WAVCIS:CSI06:1,2008-08-13T22:00:00Z,28.8667,-90.4833,1008.84,11111222 
WAVCIS,ioos:station:WAVCIS:CSI06:1,2008-08-13T23:00:00Z,28.8667,-90.4833,1008.89,11111222 
WAVCIS,ioos:station:WAVCIS:CSI06:1,2008-08-14T00:00:00Z,28.8667,-90.4833,1008.88,11111222 
WAVCIS,ioos:station:WAVCIS:CSI06:1,2008-08-14T01:00:00Z,28.8667,-90.4833,1009.05,11111222 
WAVCIS,ioos:station:WAVCIS:CSI06:1,2008-08-14T02:00:00Z,28.8667,-90.4833,1009.34,11111222 
WAVCIS,ioos:station:WAVCIS:CSI06:1,2008-08-14T03:00:00Z,28.8667,-90.4833,1009.58,11111222 
WAVCIS,ioos:station:WAVCIS:CSI06:1,2008-08-14T04:00:00Z,28.8667,-90.4833,1009.84,11111222 
WAVCIS,ioos:station:WAVCIS:CSI06:1,2008-08-14T05:00:00Z,28.8667,-90.4833,1010.07,11111222 
WAVCIS,ioos:station:WAVCIS:CSI06:1,2008-08-14T06:00:00Z,28.8667,-90.4833,1009.9,11111222 
WAVCIS,ioos:station:WAVCIS:CSI06:1,2008-08-14T07:00:00Z,28.8667,-90.4833,1009.78,11111222 
WAVCIS,ioos:station:WAVCIS:CSI06:1,2008-08-14T08:00:00Z,28.8667,-90.4833,1009.43,11111222 
WAVCIS,ioos:station:WAVCIS:CSI06:1,2008-08-14T09:00:00Z,28.8667,-90.4833,1009.73,11111222 
WAVCIS,ioos:station:WAVCIS:CSI06:1,2008-08-14T10:00:00Z,28.8667,-90.4833,1009.74,11111222 
WAVCIS,ioos:station:WAVCIS:CSI06:1,2008-08-14T11:00:00Z,28.8667,-90.4833,1010.16,11111222 
WAVCIS,ioos:station:WAVCIS:CSI06:1,2008-08-14T12:00:00Z,28.8667,-90.4833,1010.39,11111222 
WAVCIS,ioos:station:WAVCIS:CSI06:1,2008-08-14T13:00:00Z,28.8667,-90.4833,1010.84,11111222 
WAVCIS,ioos:station:WAVCIS:CSI06:1,2008-08-14T14:00:00Z,28.8667,-90.4833,1011.4,11111222 
WAVCIS,ioos:station:WAVCIS:CSI06:1,2008-08-14T15:00:00Z,28.8667,-90.4833,1011.74,11111222 
WAVCIS,ioos:station:WAVCIS:CSI06:1,2008-08-14T16:00:00Z,28.8667,-90.4833,1012.21,11111222 
WAVCIS,ioos:station:WAVCIS:CSI06:1,2008-08-14T17:00:00Z,28.8667,-90.4833,1012.73,11111222 
WAVCIS,ioos:station:WAVCIS:CSI06:1,2008-08-14T18:00:00Z,28.8667,-90.4833,1012.18,11111222 
WAVCIS,ioos:station:WAVCIS:CSI06:1,2008-08-14T19:00:00Z,28.8667,-90.4833,1012.61,11111222 
WAVCIS,ioos:station:WAVCIS:CSI06:1,2008-08-14T20:00:00Z,28.8667,-90.4833,1012.21,11111222 
WAVCIS,ioos:station:WAVCIS:CSI06:1,2008-08-14T21:00:00Z,28.8667,-90.4833,1011.88,11111222 
WAVCIS,ioos:station:WAVCIS:CSI06:1,2008-08-14T22:00:00Z,28.8667,-90.4833,1011.69,11111222 
WAVCIS,ioos:station:WAVCIS:CSI06:1,2008-08-14T23:00:00Z,28.8667,-90.4833,1011.42,11111222 
WAVCIS,ioos:station:WAVCIS:CSI06:1,2008-08-15T00:00:00Z,28.8667,-90.4833,1011.38,11111222 
WAVCIS,ioos:station:WAVCIS:CSI06:1,2008-08-15T01:00:00Z,28.8667,-90.4833,1011.28,11111222 
WAVCIS,ioos:station:WAVCIS:CSI06:1,2008-08-15T02:00:00Z,28.8667,-90.4833,1011.77,11111222 
WAVCIS,ioos:station:WAVCIS:CSI06:1,2008-08-15T03:00:00Z,28.8667,-90.4833,1012.29,11111222 
WAVCIS,ioos:station:WAVCIS:CSI06:1,2008-08-15T04:00:00Z,28.8667,-90.4833,1012.68,11111222 
WAVCIS,ioos:station:WAVCIS:CSI06:1,2008-08-15T05:00:00Z,28.8667,-90.4833,1012.96,11111222 
WAVCIS,ioos:station:WAVCIS:CSI06:1,2008-08-15T06:00:00Z,28.8667,-90.4833,1012.93,11111222 
WAVCIS,ioos:station:WAVCIS:CSI06:1,2008-08-15T07:00:00Z,28.8667,-90.4833,1012.95,11111222 
WAVCIS,ioos:station:WAVCIS:CSI06:1,2008-08-15T08:00:00Z,28.8667,-90.4833,1012.51,11111222 
WAVCIS,ioos:station:WAVCIS:CSI06:1,2008-08-15T09:00:00Z,28.8667,-90.4833,1012.62,11111222 
WAVCIS,ioos:station:WAVCIS:CSI06:1,2008-08-15T10:00:00Z,28.8667,-90.4833,1012.7,11111222 
WAVCIS,ioos:station:WAVCIS:CSI06:1,2008-08-15T11:00:00Z,28.8667,-90.4833,1013.0,11111222 
WAVCIS,ioos:station:WAVCIS:CSI06:1,2008-08-15T12:00:00Z,28.8667,-90.4833,1013.77,11111222 
WAVCIS,ioos:station:WAVCIS:CSI06:1,2008-08-15T13:00:00Z,28.8667,-90.4833,1014.26,11111222 
WAVCIS,ioos:station:WAVCIS:CSI06:1,2008-08-15T14:00:00Z,28.8667,-90.4833,1014.29,11111222 
WAVCIS,ioos:station:WAVCIS:CSI06:1,2008-08-15T15:00:00Z,28.8667,-90.4833,1014.89,11111222 
WAVCIS,ioos:station:WAVCIS:CSI06:1,2008-08-15T16:00:00Z,28.8667,-90.4833,1015.16,11111222 
WAVCIS,ioos:station:WAVCIS:CSI06:1,2008-08-15T17:00:00Z,28.8667,-90.4833,1015.57,11111222 
WAVCIS,ioos:station:WAVCIS:CSI06:1,2008-08-15T18:00:00Z,28.8667,-90.4833,1015.54,11111222 
WAVCIS,ioos:station:WAVCIS:CSI06:1,2008-08-15T19:00:00Z,28.8667,-90.4833,1014.68,11111222 
WAVCIS,ioos:station:WAVCIS:CSI06:1,2008-08-15T20:00:00Z,28.8667,-90.4833,1014.27,11111222 
WAVCIS,ioos:station:WAVCIS:CSI06:1,2008-08-15T21:00:00Z,28.8667,-90.4833,1014.36,11111222 
WAVCIS,ioos:station:WAVCIS:CSI06:1,2008-08-15T22:00:00Z,28.8667,-90.4833,1014.59,11111222 
WAVCIS,ioos:station:WAVCIS:CSI06:1,2008-08-15T23:00:00Z,28.8667,-90.4833,1014.38,11111222 
WAVCIS,ioos:station:WAVCIS:CSI06:1,2008-08-16T00:00:00Z,28.8667,-90.4833,1014.44,11111222 
WAVCIS,ioos:station:WAVCIS:CSI06:1,2008-08-16T01:00:00Z,28.8667,-90.4833,1014.43,11111222 
WAVCIS,ioos:station:WAVCIS:CSI06:1,2008-08-16T02:00:00Z,28.8667,-90.4833,1014.42,11111222 
WAVCIS,ioos:station:WAVCIS:CSI06:1,2008-08-16T03:00:00Z,28.8667,-90.4833,1014.67,11111222 
WAVCIS,ioos:station:WAVCIS:CSI06:1,2008-08-16T04:00:00Z,28.8667,-90.4833,1014.94,11111222 
WAVCIS,ioos:station:WAVCIS:CSI06:1,2008-08-16T05:00:00Z,28.8667,-90.4833,1014.67,11111222 
WAVCIS,ioos:station:WAVCIS:CSI06:1,2008-08-16T06:00:00Z,28.8667,-90.4833,1014.66,11111222 
WAVCIS,ioos:station:WAVCIS:CSI06:1,2008-08-16T07:00:00Z,28.8667,-90.4833,1014.35,11111222 
WAVCIS,ioos:station:WAVCIS:CSI06:1,2008-08-16T08:00:00Z,28.8667,-90.4833,1014.25,11111222 
WAVCIS,ioos:station:WAVCIS:CSI06:1,2008-08-16T09:00:00Z,28.8667,-90.4833,1014.14,11111222 
WAVCIS,ioos:station:WAVCIS:CSI06:1,2008-08-16T10:00:00Z,28.8667,-90.4833,1014.22,11111222 
WAVCIS,ioos:station:WAVCIS:CSI06:1,2008-08-16T11:00:00Z,28.8667,-90.4833,1013.87,11111222 
WAVCIS,ioos:station:WAVCIS:CSI06:1,2008-08-16T12:00:00Z,28.8667,-90.4833,1013.87,11111222 
WAVCIS,ioos:station:WAVCIS:CSI06:1,2008-08-16T13:00:00Z,28.8667,-90.4833,1014.46,11111222 
WAVCIS,ioos:station:WAVCIS:CSI06:1,2008-08-16T14:00:00Z,28.8667,-90.4833,1014.47,11111222 
WAVCIS,ioos:station:WAVCIS:CSI06:1,2008-08-16T15:00:00Z,28.8667,-90.4833,1014.34,11111222 
WAVCIS,ioos:station:WAVCIS:CSI06:1,2008-08-16T16:00:00Z,28.8667,-90.4833,1015.17,11111222 
WAVCIS,ioos:station:WAVCIS:CSI06:1,2008-08-16T17:00:00Z,28.8667,-90.4833,1015.26,11111222 
WAVCIS,ioos:station:WAVCIS:CSI06:1,2008-08-16T18:00:00Z,28.8667,-90.4833,1015.05,11111222 
WAVCIS,ioos:station:WAVCIS:CSI06:1,2008-08-16T19:00:00Z,28.8667,-90.4833,1014.46,11111222 
WAVCIS,ioos:station:WAVCIS:CSI06:1,2008-08-16T20:00:00Z,28.8667,-90.4833,1014.48,11111222 
WAVCIS,ioos:station:WAVCIS:CSI06:1,2008-08-16T21:00:00Z,28.8667,-90.4833,1014.04,11111222 
WAVCIS,ioos:station:WAVCIS:CSI06:1,2008-08-16T22:00:00Z,28.8667,-90.4833,1013.7,11111222 
WAVCIS,ioos:station:WAVCIS:CSI06:1,2008-08-16T23:00:00Z,28.8667,-90.4833,1013.16,11111222 
WAVCIS,ioos:station:WAVCIS:CSI06:1,2008-08-17T00:00:00Z,28.8667,-90.4833,1013.08,11111222 
WAVCIS,ioos:station:WAVCIS:CSI06:1,2008-08-17T01:00:00Z,28.8667,-90.4833,1012.86,11111222 
WAVCIS,ioos:station:WAVCIS:CSI06:1,2008-08-17T02:00:00Z,28.8667,-90.4833,1012.95,11111222 
WAVCIS,ioos:station:WAVCIS:CSI06:1,2008-08-17T03:00:00Z,28.8667,-90.4833,1013.29,11111222 
WAVCIS,ioos:station:WAVCIS:CSI06:1,2008-08-17T04:00:00Z,28.8667,-90.4833,1013.74,11111222 
WAVCIS,ioos:station:WAVCIS:CSI06:1,2008-08-17T05:00:00Z,28.8667,-90.4833,1013.52,11111222 
WAVCIS,ioos:station:WAVCIS:CSI06:1,2008-08-17T06:00:00Z,28.8667,-90.4833,1013.43,11111222 
WAVCIS,ioos:station:WAVCIS:CSI06:1,2008-08-17T07:00:00Z,28.8667,-90.4833,1012.87,11111222 
WAVCIS,ioos:station:WAVCIS:CSI06:1,2008-08-17T08:00:00Z,28.8667,-90.4833,1012.52,11111222 
WAVCIS,ioos:station:WAVCIS:CSI06:1,2008-08-17T09:00:00Z,28.8667,-90.4833,1012.58,11111222 
WAVCIS,ioos:station:WAVCIS:CSI06:1,2008-08-17T10:00:00Z,28.8667,-90.4833,1012.72,11111222 
WAVCIS,ioos:station:WAVCIS:CSI06:1,2008-08-17T11:00:00Z,28.8667,-90.4833,1012.85,11111222 
WAVCIS,ioos:station:WAVCIS:CSI06:1,2008-08-17T12:00:00Z,28.8667,-90.4833,1012.95,11111222 
WAVCIS,ioos:station:WAVCIS:CSI06:1,2008-08-17T13:00:00Z,28.8667,-90.4833,1013.16,11111222 
WAVCIS,ioos:station:WAVCIS:CSI06:1,2008-08-17T14:00:00Z,28.8667,-90.4833,1013.7,11111222 
WAVCIS,ioos:station:WAVCIS:CSI06:1,2008-08-17T15:00:00Z,28.8667,-90.4833,1013.55,11111222 
WAVCIS,ioos:station:WAVCIS:CSI06:1,2008-08-17T16:00:00Z,28.8667,-90.4833,1013.61,11111222 
WAVCIS,ioos:station:WAVCIS:CSI06:1,2008-08-17T17:00:00Z,28.8667,-90.4833,1013.31,11111222 